owner,sensor,date,latitude,longitude,vertical_datum,wind_speed,wind_to_direction,wind_speed_of_gust,qcFlag 
DISL,ioos:station:DISL:CATA:1,2013-09-01T00:00:00Z,30.3085,-88.1395,0.0,2.3,273.0,99.0,'11111222,11111222,11144222' 
DISL,ioos:station:DISL:CATA:1,2013-09-01T00:30:00Z,30.3085,-88.1395,0.0,3.5,261.0,99.0,'11111222,11111222,11144222' 
DISL,ioos:station:DISL:CATA:1,2013-09-01T01:00:00Z,30.3085,-88.1395,0.0,3.6,264.0,99.0,'11111222,11111222,11144222' 
DISL,ioos:station:DISL:CATA:1,2013-09-01T01:30:00Z,30.3085,-88.1395,0.0,5.0,267.0,99.0,'11111222,11111222,11144222' 
DISL,ioos:station:DISL:CATA:1,2013-09-01T02:00:00Z,30.3085,-88.1395,0.0,5.0,273.0,99.0,'11111222,11111222,11144222' 
DISL,ioos:station:DISL:CATA:1,2013-09-01T02:30:00Z,30.3085,-88.1395,0.0,4.9,260.0,99.0,'11111222,11111222,11144222' 
DISL,ioos:station:DISL:CATA:1,2013-09-01T03:00:00Z,30.3085,-88.1395,0.0,4.1,275.0,99.0,'11111222,11111222,11144222' 
DISL,ioos:station:DISL:CATA:1,2013-09-01T03:30:00Z,30.3085,-88.1395,0.0,3.7,248.0,99.0,'11111222,11111222,11144222' 
DISL,ioos:station:DISL:CATA:1,2013-09-01T04:00:00Z,30.3085,-88.1395,0.0,3.8,253.0,99.0,'11111222,11111222,11144222' 
DISL,ioos:station:DISL:CATA:1,2013-09-01T04:30:00Z,30.3085,-88.1395,0.0,4.3,242.0,99.0,'11111222,11111222,11144222' 
DISL,ioos:station:DISL:CATA:1,2013-09-01T05:00:00Z,30.3085,-88.1395,0.0,4.4,230.0,99.0,'11111222,11111222,11144222' 
DISL,ioos:station:DISL:CATA:1,2013-09-01T05:30:00Z,30.3085,-88.1395,0.0,5.9,227.0,99.0,'11111222,11111222,11144222' 
DISL,ioos:station:DISL:CATA:1,2013-09-01T06:30:00Z,30.3085,-88.1395,0.0,6.1,242.0,99.0,'11111222,11111222,11144222' 
DISL,ioos:station:DISL:CATA:1,2013-09-01T07:00:00Z,30.3085,-88.1395,0.0,6.1,249.0,99.0,'11111222,11111222,11144222' 
DISL,ioos:station:DISL:CATA:1,2013-09-01T07:30:00Z,30.3085,-88.1395,0.0,5.8,256.0,99.0,'11111222,11111222,11144222' 
DISL,ioos:station:DISL:CATA:1,2013-09-01T08:00:00Z,30.3085,-88.1395,0.0,5.8,259.0,99.0,'11111222,11111222,11144222' 
DISL,ioos:station:DISL:CATA:1,2013-09-01T08:30:00Z,30.3085,-88.1395,0.0,6.1,261.0,99.0,'11111222,11111222,11144222' 
DISL,ioos:station:DISL:CATA:1,2013-09-01T09:00:00Z,30.3085,-88.1395,0.0,5.7,271.0,99.0,'11111222,11111222,11144222' 
DISL,ioos:station:DISL:CATA:1,2013-09-01T09:30:00Z,30.3085,-88.1395,0.0,6.2,282.0,99.0,'11111222,11111222,11144222' 
DISL,ioos:station:DISL:CATA:1,2013-09-01T10:00:00Z,30.3085,-88.1395,0.0,4.7,312.0,99.0,'11111222,11111222,11144222' 
DISL,ioos:station:DISL:CATA:1,2013-09-01T10:30:00Z,30.3085,-88.1395,0.0,4.8,293.0,99.0,'11111222,11111222,11144222' 
DISL,ioos:station:DISL:CATA:1,2013-09-01T11:00:00Z,30.3085,-88.1395,0.0,3.5,311.0,99.0,'11111222,11111222,11144222' 
DISL,ioos:station:DISL:CATA:1,2013-09-01T11:30:00Z,30.3085,-88.1395,0.0,3.3,309.0,99.0,'11111222,11111222,11144222' 
DISL,ioos:station:DISL:CATA:1,2013-09-01T12:00:00Z,30.3085,-88.1395,0.0,2.4,311.0,99.0,'11111222,11111222,11144222' 
DISL,ioos:station:DISL:CATA:1,2013-09-01T12:30:00Z,30.3085,-88.1395,0.0,2.8,297.0,99.0,'11111222,11111222,11144222' 
DISL,ioos:station:DISL:CATA:1,2013-09-01T13:00:00Z,30.3085,-88.1395,0.0,3.7,285.0,99.0,'11111222,11111222,11144222' 
DISL,ioos:station:DISL:CATA:1,2013-09-01T13:30:00Z,30.3085,-88.1395,0.0,4.4,290.0,99.0,'11111222,11111222,11144222' 
DISL,ioos:station:DISL:CATA:1,2013-09-01T14:00:00Z,30.3085,-88.1395,0.0,5.5,293.0,99.0,'11111222,11111222,11144222' 
DISL,ioos:station:DISL:CATA:1,2013-09-01T14:30:00Z,30.3085,-88.1395,0.0,4.7,285.0,99.0,'11111222,11111222,11144222' 
DISL,ioos:station:DISL:CATA:1,2013-09-01T15:00:00Z,30.3085,-88.1395,0.0,5.1,274.0,99.0,'11111222,11111222,11144222' 
DISL,ioos:station:DISL:CATA:1,2013-09-01T15:30:00Z,30.3085,-88.1395,0.0,4.5,280.0,99.0,'11111222,11111222,11144222' 
DISL,ioos:station:DISL:CATA:1,2013-09-01T16:00:00Z,30.3085,-88.1395,0.0,4.8,264.0,99.0,'11111222,11111222,11144222' 
DISL,ioos:station:DISL:CATA:1,2013-09-01T16:30:00Z,30.3085,-88.1395,0.0,4.3,262.0,99.0,'11111222,11111222,11144222' 
DISL,ioos:station:DISL:CATA:1,2013-09-01T17:00:00Z,30.3085,-88.1395,0.0,5.0,257.0,99.0,'11111222,11111222,11144222' 
DISL,ioos:station:DISL:CATA:1,2013-09-01T17:30:00Z,30.3085,-88.1395,0.0,4.0,245.0,99.0,'11111222,11111222,11144222' 
DISL,ioos:station:DISL:CATA:1,2013-09-01T18:00:00Z,30.3085,-88.1395,0.0,1.8,330.0,99.0,'11111222,11111222,11144222' 
DISL,ioos:station:DISL:CATA:1,2013-09-01T18:30:00Z,30.3085,-88.1395,0.0,2.6,263.0,99.0,'11111222,11111222,11144222' 
DISL,ioos:station:DISL:CATA:1,2013-09-01T19:00:00Z,30.3085,-88.1395,0.0,5.5,256.0,99.0,'11111222,11111222,11144222' 
DISL,ioos:station:DISL:CATA:1,2013-09-01T19:30:00Z,30.3085,-88.1395,0.0,6.2,254.0,99.0,'11111222,11111222,11144222' 
DISL,ioos:station:DISL:CATA:1,2013-09-01T20:00:00Z,30.3085,-88.1395,0.0,5.8,252.0,99.0,'11111222,11111222,11144222' 
DISL,ioos:station:DISL:CATA:1,2013-09-01T20:30:00Z,30.3085,-88.1395,0.0,5.1,241.0,99.0,'11111222,11111222,11144222' 
DISL,ioos:station:DISL:CATA:1,2013-09-01T21:00:00Z,30.3085,-88.1395,0.0,6.8,234.0,99.0,'11111222,11111222,11144222' 
DISL,ioos:station:DISL:CATA:1,2013-09-01T21:30:00Z,30.3085,-88.1395,0.0,6.1,230.0,99.0,'11111222,11111222,11144222' 
DISL,ioos:station:DISL:CATA:1,2013-09-01T22:00:00Z,30.3085,-88.1395,0.0,5.2,229.0,99.0,'11111222,11111222,11144222' 
DISL,ioos:station:DISL:CATA:1,2013-09-01T22:30:00Z,30.3085,-88.1395,0.0,4.9,234.0,99.0,'11111222,11111222,11144222' 
DISL,ioos:station:DISL:CATA:1,2013-09-01T23:00:00Z,30.3085,-88.1395,0.0,4.3,236.0,99.0,'11111222,11111222,11144222' 
DISL,ioos:station:DISL:CATA:1,2013-09-01T23:30:00Z,30.3085,-88.1395,0.0,4.7,232.0,99.0,'11111222,11111222,11144222' 
DISL,ioos:station:DISL:CATA:1,2013-09-02T00:00:00Z,30.3085,-88.1395,0.0,3.3,229.0,99.0,'11111222,11111222,11144222' 
DISL,ioos:station:DISL:CATA:1,2013-09-02T00:30:00Z,30.3085,-88.1395,0.0,4.6,224.0,99.0,'11111222,11111222,11144222' 
DISL,ioos:station:DISL:CATA:1,2013-09-02T01:00:00Z,30.3085,-88.1395,0.0,3.4,215.0,99.0,'11111222,11111222,11144222' 
DISL,ioos:station:DISL:CATA:1,2013-09-02T01:30:00Z,30.3085,-88.1395,0.0,4.2,237.0,99.0,'11111222,11111222,11144222' 
DISL,ioos:station:DISL:CATA:1,2013-09-02T02:00:00Z,30.3085,-88.1395,0.0,3.4,243.0,99.0,'11111222,11111222,11144222' 
DISL,ioos:station:DISL:CATA:1,2013-09-02T02:30:00Z,30.3085,-88.1395,0.0,3.6,244.0,99.0,'11111222,11111222,11144222' 
DISL,ioos:station:DISL:CATA:1,2013-09-02T03:00:00Z,30.3085,-88.1395,0.0,2.7,236.0,99.0,'11111222,11111222,11144222' 
DISL,ioos:station:DISL:CATA:1,2013-09-02T03:30:00Z,30.3085,-88.1395,0.0,4.1,249.0,99.0,'11111222,11111222,11144222' 
DISL,ioos:station:DISL:CATA:1,2013-09-02T04:00:00Z,30.3085,-88.1395,0.0,4.8,244.0,99.0,'11111222,11111222,11144222' 
DISL,ioos:station:DISL:CATA:1,2013-09-02T04:30:00Z,30.3085,-88.1395,0.0,5.9,236.0,99.0,'11111222,11111222,11144222' 
DISL,ioos:station:DISL:CATA:1,2013-09-02T05:00:00Z,30.3085,-88.1395,0.0,5.9,222.0,99.0,'11111222,11111222,11144222' 
DISL,ioos:station:DISL:CATA:1,2013-09-02T05:30:00Z,30.3085,-88.1395,0.0,6.9,216.0,99.0,'11111222,11111222,11144222' 
DISL,ioos:station:DISL:CATA:1,2013-09-02T06:30:00Z,30.3085,-88.1395,0.0,7.6,218.0,99.0,'11111222,11111222,11144222' 
DISL,ioos:station:DISL:CATA:1,2013-09-02T07:00:00Z,30.3085,-88.1395,0.0,6.7,217.0,99.0,'11111222,11111222,11144222' 
DISL,ioos:station:DISL:CATA:1,2013-09-02T07:30:00Z,30.3085,-88.1395,0.0,6.1,219.0,99.0,'11111222,11111222,11144222' 
DISL,ioos:station:DISL:CATA:1,2013-09-02T08:00:00Z,30.3085,-88.1395,0.0,6.9,224.0,99.0,'11111222,11111222,11144222' 
DISL,ioos:station:DISL:CATA:1,2013-09-02T08:30:00Z,30.3085,-88.1395,0.0,6.0,225.0,99.0,'11111222,11111222,11144222' 
DISL,ioos:station:DISL:CATA:1,2013-09-02T09:00:00Z,30.3085,-88.1395,0.0,6.5,243.0,99.0,'11111222,11111222,11144222' 
DISL,ioos:station:DISL:CATA:1,2013-09-02T09:30:00Z,30.3085,-88.1395,0.0,7.1,248.0,99.0,'11111222,11111222,11144222' 
DISL,ioos:station:DISL:CATA:1,2013-09-02T10:00:00Z,30.3085,-88.1395,0.0,6.3,256.0,99.0,'11111222,11111222,11144222' 
DISL,ioos:station:DISL:CATA:1,2013-09-02T10:30:00Z,30.3085,-88.1395,0.0,6.2,262.0,99.0,'11111222,11111222,11144222' 
DISL,ioos:station:DISL:CATA:1,2013-09-02T11:00:00Z,30.3085,-88.1395,0.0,6.4,261.0,99.0,'11111222,11111222,11144222' 
DISL,ioos:station:DISL:CATA:1,2013-09-02T11:30:00Z,30.3085,-88.1395,0.0,5.6,258.0,99.0,'11111222,11111222,11144222' 
DISL,ioos:station:DISL:CATA:1,2013-09-02T12:00:00Z,30.3085,-88.1395,0.0,4.8,304.0,99.0,'11111222,11111222,11144222' 
DISL,ioos:station:DISL:CATA:1,2013-09-02T12:30:00Z,30.3085,-88.1395,0.0,5.2,295.0,99.0,'11111222,11111222,11144222' 
DISL,ioos:station:DISL:CATA:1,2013-09-02T13:00:00Z,30.3085,-88.1395,0.0,5.6,283.0,99.0,'11111222,11111222,11144222' 
DISL,ioos:station:DISL:CATA:1,2013-09-02T13:30:00Z,30.3085,-88.1395,0.0,5.6,311.0,99.0,'11111222,11111222,11144222' 
DISL,ioos:station:DISL:CATA:1,2013-09-02T14:00:00Z,30.3085,-88.1395,0.0,5.5,304.0,99.0,'11111222,11111222,11144222' 
DISL,ioos:station:DISL:CATA:1,2013-09-02T14:30:00Z,30.3085,-88.1395,0.0,4.9,295.0,99.0,'11111222,11111222,11144222' 
DISL,ioos:station:DISL:CATA:1,2013-09-02T15:00:00Z,30.3085,-88.1395,0.0,4.9,290.0,99.0,'11111222,11111222,11144222' 
DISL,ioos:station:DISL:CATA:1,2013-09-02T15:30:00Z,30.3085,-88.1395,0.0,2.7,274.0,99.0,'11111222,11111222,11144222' 
DISL,ioos:station:DISL:CATA:1,2013-09-02T16:00:00Z,30.3085,-88.1395,0.0,2.9,260.0,99.0,'11111222,11111222,11144222' 
DISL,ioos:station:DISL:CATA:1,2013-09-02T16:30:00Z,30.3085,-88.1395,0.0,3.2,239.0,99.0,'11111222,11111222,11144222' 
DISL,ioos:station:DISL:CATA:1,2013-09-02T17:00:00Z,30.3085,-88.1395,0.0,4.0,243.0,99.0,'11111222,11111222,11144222' 
DISL,ioos:station:DISL:CATA:1,2013-09-02T17:30:00Z,30.3085,-88.1395,0.0,4.4,242.0,99.0,'11111222,11111222,11144222' 
DISL,ioos:station:DISL:CATA:1,2013-09-02T18:00:00Z,30.3085,-88.1395,0.0,4.9,247.0,99.0,'11111222,11111222,11144222' 
DISL,ioos:station:DISL:CATA:1,2013-09-02T18:30:00Z,30.3085,-88.1395,0.0,5.4,252.0,99.0,'11111222,11111222,11144222' 
DISL,ioos:station:DISL:CATA:1,2013-09-02T19:00:00Z,30.3085,-88.1395,0.0,6.3,252.0,99.0,'11111222,11111222,11144222' 
DISL,ioos:station:DISL:CATA:1,2013-09-02T19:30:00Z,30.3085,-88.1395,0.0,4.9,249.0,99.0,'11111222,11111222,11144222' 
DISL,ioos:station:DISL:CATA:1,2013-09-02T20:00:00Z,30.3085,-88.1395,0.0,4.7,245.0,99.0,'11111222,11111222,11144222' 
DISL,ioos:station:DISL:CATA:1,2013-09-02T20:30:00Z,30.3085,-88.1395,0.0,4.7,239.0,99.0,'11111222,11111222,11144222' 
DISL,ioos:station:DISL:CATA:1,2013-09-02T21:00:00Z,30.3085,-88.1395,0.0,4.7,234.0,99.0,'11111222,11111222,11144222' 
DISL,ioos:station:DISL:CATA:1,2013-09-02T21:30:00Z,30.3085,-88.1395,0.0,5.0,219.0,99.0,'11111222,11111222,11144222' 
DISL,ioos:station:DISL:CATA:1,2013-09-02T22:00:00Z,30.3085,-88.1395,0.0,5.2,223.0,99.0,'11111222,11111222,11144222' 
DISL,ioos:station:DISL:CATA:1,2013-09-02T22:30:00Z,30.3085,-88.1395,0.0,5.2,213.0,99.0,'11111222,11111222,11144222' 
DISL,ioos:station:DISL:CATA:1,2013-09-02T23:00:00Z,30.3085,-88.1395,0.0,5.6,207.0,99.0,'11111222,11111222,11144222' 
DISL,ioos:station:DISL:CATA:1,2013-09-02T23:30:00Z,30.3085,-88.1395,0.0,5.3,204.0,99.0,'11111222,11111222,11144222' 
DISL,ioos:station:DISL:CATA:1,2013-09-03T00:00:00Z,30.3085,-88.1395,0.0,5.9,207.0,99.0,'11111222,11111222,11144222' 
DISL,ioos:station:DISL:CATA:1,2013-09-03T00:30:00Z,30.3085,-88.1395,0.0,6.5,204.0,99.0,'11111222,11111222,11144222' 
DISL,ioos:station:DISL:CATA:1,2013-09-03T01:00:00Z,30.3085,-88.1395,0.0,6.2,189.0,99.0,'11111222,11111222,11144222' 
DISL,ioos:station:DISL:CATA:1,2013-09-03T01:30:00Z,30.3085,-88.1395,0.0,6.1,199.0,99.0,'11111222,11111222,11144222' 
DISL,ioos:station:DISL:CATA:1,2013-09-03T02:00:00Z,30.3085,-88.1395,0.0,5.4,203.0,99.0,'11111222,11111222,11144222' 
DISL,ioos:station:DISL:CATA:1,2013-09-03T02:30:00Z,30.3085,-88.1395,0.0,5.9,212.0,99.0,'11111222,11111222,11144222' 
DISL,ioos:station:DISL:CATA:1,2013-09-03T03:00:00Z,30.3085,-88.1395,0.0,5.8,217.0,99.0,'11111222,11111222,11144222' 
DISL,ioos:station:DISL:CATA:1,2013-09-03T03:30:00Z,30.3085,-88.1395,0.0,5.9,216.0,99.0,'11111222,11111222,11144222' 
DISL,ioos:station:DISL:CATA:1,2013-09-03T04:00:00Z,30.3085,-88.1395,0.0,5.5,220.0,99.0,'11111222,11111222,11144222' 
DISL,ioos:station:DISL:CATA:1,2013-09-03T04:30:00Z,30.3085,-88.1395,0.0,5.6,216.0,99.0,'11111222,11111222,11144222' 
DISL,ioos:station:DISL:CATA:1,2013-09-03T05:00:00Z,30.3085,-88.1395,0.0,5.2,216.0,99.0,'11111222,11111222,11144222' 
DISL,ioos:station:DISL:CATA:1,2013-09-03T05:30:00Z,30.3085,-88.1395,0.0,5.8,218.0,99.0,'11111222,11111222,11144222' 
DISL,ioos:station:DISL:CATA:1,2013-09-03T06:30:00Z,30.3085,-88.1395,0.0,5.6,230.0,99.0,'11111222,11111222,11144222' 
DISL,ioos:station:DISL:CATA:1,2013-09-03T07:00:00Z,30.3085,-88.1395,0.0,6.0,233.0,99.0,'11111222,11111222,11144222' 
DISL,ioos:station:DISL:CATA:1,2013-09-03T07:30:00Z,30.3085,-88.1395,0.0,6.3,233.0,99.0,'11111222,11111222,11144222' 
DISL,ioos:station:DISL:CATA:1,2013-09-03T08:00:00Z,30.3085,-88.1395,0.0,7.0,251.0,99.0,'11111222,11111222,11144222' 
DISL,ioos:station:DISL:CATA:1,2013-09-03T08:30:00Z,30.3085,-88.1395,0.0,6.3,243.0,99.0,'11111222,11111222,11144222' 
DISL,ioos:station:DISL:CATA:1,2013-09-03T09:00:00Z,30.3085,-88.1395,0.0,4.9,255.0,99.0,'11111222,11111222,11144222' 
DISL,ioos:station:DISL:CATA:1,2013-09-03T09:30:00Z,30.3085,-88.1395,0.0,6.2,258.0,99.0,'11111222,11111222,11144222' 
DISL,ioos:station:DISL:CATA:1,2013-09-03T10:00:00Z,30.3085,-88.1395,0.0,6.2,278.0,99.0,'11111222,11111222,11144222' 
DISL,ioos:station:DISL:CATA:1,2013-09-03T10:30:00Z,30.3085,-88.1395,0.0,3.3,305.0,99.0,'11111222,11111222,11144222' 
DISL,ioos:station:DISL:CATA:1,2013-09-03T11:00:00Z,30.3085,-88.1395,0.0,2.9,338.0,99.0,'11111222,11111222,11144222' 
DISL,ioos:station:DISL:CATA:1,2013-09-03T11:30:00Z,30.3085,-88.1395,0.0,2.0,306.0,99.0,'11111222,11111222,11144222' 
DISL,ioos:station:DISL:CATA:1,2013-09-03T12:00:00Z,30.3085,-88.1395,0.0,4.0,313.0,99.0,'11111222,11111222,11144222' 
DISL,ioos:station:DISL:CATA:1,2013-09-03T12:30:00Z,30.3085,-88.1395,0.0,5.3,303.0,99.0,'11111222,11111222,11144222' 
DISL,ioos:station:DISL:CATA:1,2013-09-03T13:00:00Z,30.3085,-88.1395,0.0,5.6,295.0,99.0,'11111222,11111222,11144222' 
DISL,ioos:station:DISL:CATA:1,2013-09-03T13:30:00Z,30.3085,-88.1395,0.0,4.7,292.0,99.0,'11111222,11111222,11144222' 
DISL,ioos:station:DISL:CATA:1,2013-09-03T14:00:00Z,30.3085,-88.1395,0.0,4.0,277.0,99.0,'11111222,11111222,11144222' 
DISL,ioos:station:DISL:CATA:1,2013-09-03T14:30:00Z,30.3085,-88.1395,0.0,3.1,278.0,99.0,'11111222,11111222,11144222' 
DISL,ioos:station:DISL:CATA:1,2013-09-03T15:00:00Z,30.3085,-88.1395,0.0,2.7,271.0,99.0,'11111222,11111222,11144222' 
DISL,ioos:station:DISL:CATA:1,2013-09-03T15:30:00Z,30.3085,-88.1395,0.0,2.8,265.0,99.0,'11111222,11111222,11144222' 
DISL,ioos:station:DISL:CATA:1,2013-09-03T16:00:00Z,30.3085,-88.1395,0.0,3.2,239.0,99.0,'11111222,11111222,11144222' 
DISL,ioos:station:DISL:CATA:1,2013-09-03T16:30:00Z,30.3085,-88.1395,0.0,3.8,216.0,99.0,'11111222,11111222,11144222' 
DISL,ioos:station:DISL:CATA:1,2013-09-03T17:00:00Z,30.3085,-88.1395,0.0,4.2,216.0,99.0,'11111222,11111222,11144222' 
DISL,ioos:station:DISL:CATA:1,2013-09-03T17:30:00Z,30.3085,-88.1395,0.0,4.2,215.0,99.0,'11111222,11111222,11144222' 
DISL,ioos:station:DISL:CATA:1,2013-09-03T18:00:00Z,30.3085,-88.1395,0.0,4.3,219.0,99.0,'11111222,11111222,11144222' 
DISL,ioos:station:DISL:CATA:1,2013-09-03T18:30:00Z,30.3085,-88.1395,0.0,5.1,215.0,99.0,'11111222,11111222,11144222' 
DISL,ioos:station:DISL:CATA:1,2013-09-03T19:00:00Z,30.3085,-88.1395,0.0,5.3,212.0,99.0,'11111222,11111222,11144222' 
DISL,ioos:station:DISL:CATA:1,2013-09-03T19:30:00Z,30.3085,-88.1395,0.0,6.4,220.0,99.0,'11111222,11111222,11144222' 
DISL,ioos:station:DISL:CATA:1,2013-09-03T20:00:00Z,30.3085,-88.1395,0.0,6.3,214.0,99.0,'11111222,11111222,11144222' 
DISL,ioos:station:DISL:CATA:1,2013-09-03T20:30:00Z,30.3085,-88.1395,0.0,6.0,213.0,99.0,'11111222,11111222,11144222' 
DISL,ioos:station:DISL:CATA:1,2013-09-03T21:00:00Z,30.3085,-88.1395,0.0,6.8,213.0,99.0,'11111222,11111222,11144222' 
DISL,ioos:station:DISL:CATA:1,2013-09-03T21:30:00Z,30.3085,-88.1395,0.0,5.3,211.0,99.0,'11111222,11111222,11144222' 
DISL,ioos:station:DISL:CATA:1,2013-09-03T22:00:00Z,30.3085,-88.1395,0.0,5.4,215.0,99.0,'11111222,11111222,11144222' 
DISL,ioos:station:DISL:CATA:1,2013-09-03T22:30:00Z,30.3085,-88.1395,0.0,3.5,208.0,99.0,'11111222,11111222,11144222' 
DISL,ioos:station:DISL:CATA:1,2013-09-03T23:00:00Z,30.3085,-88.1395,0.0,9.6,36.0,99.0,'11111222,11111222,11144222' 
DISL,ioos:station:DISL:CATA:1,2013-09-03T23:30:00Z,30.3085,-88.1395,0.0,7.0,356.0,99.0,'11111222,11111222,11144222' 
DISL,ioos:station:DISL:CATA:1,2013-09-04T00:00:00Z,30.3085,-88.1395,0.0,5.4,305.0,99.0,'11111222,11111222,11144222' 
DISL,ioos:station:DISL:CATA:1,2013-09-04T00:30:00Z,30.3085,-88.1395,0.0,5.2,273.0,99.0,'11111222,11111222,11144222' 
DISL,ioos:station:DISL:CATA:1,2013-09-04T01:00:00Z,30.3085,-88.1395,0.0,7.3,210.0,99.0,'11111222,11111222,11144222' 
DISL,ioos:station:DISL:CATA:1,2013-09-04T01:30:00Z,30.3085,-88.1395,0.0,2.4,29.0,99.0,'11111222,11111222,11144222' 
DISL,ioos:station:DISL:CATA:1,2013-09-04T02:00:00Z,30.3085,-88.1395,0.0,2.0,356.0,99.0,'11111222,11111222,11144222' 
DISL,ioos:station:DISL:CATA:1,2013-09-04T02:30:00Z,30.3085,-88.1395,0.0,0.8,68.0,99.0,'11111222,11111222,11144222' 
DISL,ioos:station:DISL:CATA:1,2013-09-04T03:00:00Z,30.3085,-88.1395,0.0,4.9,171.0,99.0,'11111222,11111222,11144222' 
DISL,ioos:station:DISL:CATA:1,2013-09-04T03:30:00Z,30.3085,-88.1395,0.0,2.4,225.0,99.0,'11111222,11111222,11144222' 
DISL,ioos:station:DISL:CATA:1,2013-09-04T04:00:00Z,30.3085,-88.1395,0.0,0.9,165.0,99.0,'11111222,11111222,11144222' 
DISL,ioos:station:DISL:CATA:1,2013-09-04T04:30:00Z,30.3085,-88.1395,0.0,2.1,11.0,99.0,'11111222,11111222,11144222' 
DISL,ioos:station:DISL:CATA:1,2013-09-04T05:00:00Z,30.3085,-88.1395,0.0,3.0,23.0,99.0,'11111222,11111222,11144222' 
DISL,ioos:station:DISL:CATA:1,2013-09-04T05:30:00Z,30.3085,-88.1395,0.0,3.2,55.0,99.0,'11111222,11111222,11144222' 
DISL,ioos:station:DISL:CATA:1,2013-09-04T06:30:00Z,30.3085,-88.1395,0.0,2.5,42.0,99.0,'11111222,11111222,11144222' 
DISL,ioos:station:DISL:CATA:1,2013-09-04T07:00:00Z,30.3085,-88.1395,0.0,2.6,41.0,99.0,'11111222,11111222,11144222' 
DISL,ioos:station:DISL:CATA:1,2013-09-04T07:30:00Z,30.3085,-88.1395,0.0,2.3,21.0,99.0,'11111222,11111222,11144222' 
DISL,ioos:station:DISL:CATA:1,2013-09-04T08:00:00Z,30.3085,-88.1395,0.0,2.7,30.0,99.0,'11111222,11111222,11144222' 
DISL,ioos:station:DISL:CATA:1,2013-09-04T08:30:00Z,30.3085,-88.1395,0.0,2.7,26.0,99.0,'11111222,11111222,11144222' 
DISL,ioos:station:DISL:CATA:1,2013-09-04T09:00:00Z,30.3085,-88.1395,0.0,2.5,32.0,99.0,'11111222,11111222,11144222' 
DISL,ioos:station:DISL:CATA:1,2013-09-04T09:30:00Z,30.3085,-88.1395,0.0,3.2,54.0,99.0,'11111222,11111222,11144222' 
DISL,ioos:station:DISL:CATA:1,2013-09-04T10:00:00Z,30.3085,-88.1395,0.0,3.2,76.0,99.0,'11111222,11111222,11144222' 
DISL,ioos:station:DISL:CATA:1,2013-09-04T10:30:00Z,30.3085,-88.1395,0.0,2.7,83.0,99.0,'11111222,11111222,11144222' 
DISL,ioos:station:DISL:CATA:1,2013-09-04T11:00:00Z,30.3085,-88.1395,0.0,2.2,95.0,99.0,'11111222,11111222,11144222' 
DISL,ioos:station:DISL:CATA:1,2013-09-04T11:30:00Z,30.3085,-88.1395,0.0,1.9,87.0,99.0,'11111222,11111222,11144222' 
DISL,ioos:station:DISL:CATA:1,2013-09-04T12:00:00Z,30.3085,-88.1395,0.0,2.2,91.0,99.0,'11111222,11111222,11144222' 
DISL,ioos:station:DISL:CATA:1,2013-09-04T12:30:00Z,30.3085,-88.1395,0.0,2.4,82.0,99.0,'11111222,11111222,11144222' 
DISL,ioos:station:DISL:CATA:1,2013-09-04T13:00:00Z,30.3085,-88.1395,0.0,2.7,87.0,99.0,'11111222,11111222,11144222' 
DISL,ioos:station:DISL:CATA:1,2013-09-04T13:30:00Z,30.3085,-88.1395,0.0,2.7,89.0,99.0,'11111222,11111222,11144222' 
DISL,ioos:station:DISL:CATA:1,2013-09-04T14:00:00Z,30.3085,-88.1395,0.0,2.2,74.0,99.0,'11111222,11111222,11144222' 
DISL,ioos:station:DISL:CATA:1,2013-09-04T14:30:00Z,30.3085,-88.1395,0.0,1.8,71.0,99.0,'11111222,11111222,11144222' 
DISL,ioos:station:DISL:CATA:1,2013-09-04T15:00:00Z,30.3085,-88.1395,0.0,2.1,108.0,99.0,'11111222,11111222,11144222' 
DISL,ioos:station:DISL:CATA:1,2013-09-04T15:30:00Z,30.3085,-88.1395,0.0,1.4,114.0,99.0,'11111222,11111222,11144222' 
DISL,ioos:station:DISL:CATA:1,2013-09-04T16:00:00Z,30.3085,-88.1395,0.0,2.1,133.0,99.0,'11111222,11111222,11144222' 
DISL,ioos:station:DISL:CATA:1,2013-09-04T16:30:00Z,30.3085,-88.1395,0.0,2.1,128.0,99.0,'11111222,11111222,11144222' 
DISL,ioos:station:DISL:CATA:1,2013-09-04T17:00:00Z,30.3085,-88.1395,0.0,2.2,131.0,99.0,'11111222,11111222,11144222' 
DISL,ioos:station:DISL:CATA:1,2013-09-04T17:30:00Z,30.3085,-88.1395,0.0,2.5,200.0,99.0,'11111222,11111222,11144222' 
DISL,ioos:station:DISL:CATA:1,2013-09-04T18:00:00Z,30.3085,-88.1395,0.0,2.8,211.0,99.0,'11111222,11111222,11144222' 
DISL,ioos:station:DISL:CATA:1,2013-09-04T18:30:00Z,30.3085,-88.1395,0.0,3.4,194.0,99.0,'11111222,11111222,11144222' 
DISL,ioos:station:DISL:CATA:1,2013-09-04T19:00:00Z,30.3085,-88.1395,0.0,3.0,206.0,99.0,'11111222,11111222,11144222' 
DISL,ioos:station:DISL:CATA:1,2013-09-04T19:30:00Z,30.3085,-88.1395,0.0,4.0,184.0,99.0,'11111222,11111222,11144222' 
DISL,ioos:station:DISL:CATA:1,2013-09-04T20:00:00Z,30.3085,-88.1395,0.0,4.5,184.0,99.0,'11111222,11111222,11144222' 
DISL,ioos:station:DISL:CATA:1,2013-09-04T20:30:00Z,30.3085,-88.1395,0.0,5.6,181.0,99.0,'11111222,11111222,11144222' 
DISL,ioos:station:DISL:CATA:1,2013-09-04T21:00:00Z,30.3085,-88.1395,0.0,5.2,184.0,99.0,'11111222,11111222,11144222' 
DISL,ioos:station:DISL:CATA:1,2013-09-04T21:30:00Z,30.3085,-88.1395,0.0,5.7,188.0,99.0,'11111222,11111222,11144222' 
DISL,ioos:station:DISL:CATA:1,2013-09-04T22:00:00Z,30.3085,-88.1395,0.0,4.4,187.0,99.0,'11111222,11111222,11144222' 
DISL,ioos:station:DISL:CATA:1,2013-09-04T22:30:00Z,30.3085,-88.1395,0.0,3.4,199.0,99.0,'11111222,11111222,11144222' 
DISL,ioos:station:DISL:CATA:1,2013-09-04T23:00:00Z,30.3085,-88.1395,0.0,3.5,191.0,99.0,'11111222,11111222,11144222' 
DISL,ioos:station:DISL:CATA:1,2013-09-04T23:30:00Z,30.3085,-88.1395,0.0,4.6,191.0,99.0,'11111222,11111222,11144222' 
DISL,ioos:station:DISL:CATA:1,2013-09-05T00:00:00Z,30.3085,-88.1395,0.0,3.8,186.0,99.0,'11111222,11111222,11144222' 
DISL,ioos:station:DISL:CATA:1,2013-09-05T00:30:00Z,30.3085,-88.1395,0.0,4.7,193.0,99.0,'11111222,11111222,11144222' 
DISL,ioos:station:DISL:CATA:1,2013-09-05T01:00:00Z,30.3085,-88.1395,0.0,3.5,208.0,99.0,'11111222,11111222,11144222' 
DISL,ioos:station:DISL:CATA:1,2013-09-05T01:30:00Z,30.3085,-88.1395,0.0,4.5,182.0,99.0,'11111222,11111222,11144222' 
DISL,ioos:station:DISL:CATA:1,2013-09-05T02:00:00Z,30.3085,-88.1395,0.0,4.4,182.0,99.0,'11111222,11111222,11144222' 
DISL,ioos:station:DISL:CATA:1,2013-09-05T02:30:00Z,30.3085,-88.1395,0.0,4.4,190.0,99.0,'11111222,11111222,11144222' 
DISL,ioos:station:DISL:CATA:1,2013-09-05T03:00:00Z,30.3085,-88.1395,0.0,4.6,190.0,99.0,'11111222,11111222,11144222' 
DISL,ioos:station:DISL:CATA:1,2013-09-05T03:30:00Z,30.3085,-88.1395,0.0,4.7,193.0,99.0,'11111222,11111222,11144222' 
DISL,ioos:station:DISL:CATA:1,2013-09-05T04:00:00Z,30.3085,-88.1395,0.0,2.9,188.0,99.0,'11111222,11111222,11144222' 
DISL,ioos:station:DISL:CATA:1,2013-09-05T04:30:00Z,30.3085,-88.1395,0.0,1.5,171.0,99.0,'11111222,11111222,11144222' 
DISL,ioos:station:DISL:CATA:1,2013-09-05T05:00:00Z,30.3085,-88.1395,0.0,1.3,191.0,99.0,'11111222,11111222,11144222' 
DISL,ioos:station:DISL:CATA:1,2013-09-05T05:30:00Z,30.3085,-88.1395,0.0,1.7,173.0,99.0,'11111222,11111222,11144222' 
DISL,ioos:station:DISL:CATA:1,2013-09-05T06:30:00Z,30.3085,-88.1395,0.0,2.1,160.0,99.0,'11111222,11111222,11144222' 
DISL,ioos:station:DISL:CATA:1,2013-09-05T07:00:00Z,30.3085,-88.1395,0.0,1.3,165.0,99.0,'11111222,11111222,11144222' 
DISL,ioos:station:DISL:CATA:1,2013-09-05T07:30:00Z,30.3085,-88.1395,0.0,0.9,141.0,99.0,'11111222,11111222,11144222' 
DISL,ioos:station:DISL:CATA:1,2013-09-05T08:00:00Z,30.3085,-88.1395,0.0,0.9,25.0,99.0,'11111222,11111222,11144222' 